| time (UTC) | temp C | wind direction | speed KPH | gust KPH | rain 1hr cm | rain 24hr cm | rain mn cm | humidity % | barometer mb |
| 20260507213340 | 15 | 39 | 3.2 | 3.2 | 0.00 | 0.00 | 0.00 | 1014.1 | |
| 20260507212340 | 15 | 62 | 0.0 | 3.2 | 0.00 | 0.00 | 0.00 | 1014.0 | |
| 20260507211334 | 15 | 260 | 0.0 | 0.0 | 0.00 | 0.00 | 0.00 | 1013.9 | |
| 20260507210328 | 15 | 260 | 0.0 | 0.0 | 0.00 | 0.00 | 0.00 | 1013.9 | |
| 20260507205330 | 15 | 260 | 1.6 | 0.0 | 0.00 | 0.00 | 0.00 | 1013.9 | |
| 20260507204333 | 15 | 75 | 0.0 | 0.0 | 0.00 | 0.00 | 0.00 | 1013.9 | |
| 20260507203326 | 15 | 63 | 1.6 | 3.2 | 0.00 | 0.00 | 0.00 | 1013.8 | |
| 20260507202325 | 15 | 62 | 4.8 | 3.2 | 0.00 | 0.00 | 0.00 | 1013.7 | |
| 20260507201328 | 15 | 4 | 0.0 | 0.0 | 0.00 | 0.00 | 0.00 | 1013.6 | |
| 20260507200319 | 15 | 32 | 4.8 | 4.8 | 0.00 | 0.00 | 0.00 | 1013.5 | |
| 20260507195318 | 15 | 49 | 4.8 | 4.8 | 0.00 | 0.00 | 0.00 | 1013.5 | |
| 20260507194317 | 16 | 83 | 1.6 | 3.2 | 0.00 | 0.00 | 0.00 | 1013.3 | |
| 20260507193320 | 16 | 41 | 4.8 | 1.6 | 0.00 | 0.00 | 0.00 | 1013.0 | |
| 20260507192321 | 16 | 63 | 3.2 | 4.8 | 0.00 | 0.00 | 0.00 | 1012.8 | |
| 20260507191321 | 16 | 80 | 4.8 | 4.8 | 0.00 | 0.00 | 0.00 | 1012.7 | |
| 20260507190324 | 16 | 127 | 4.8 | 4.8 | 0.00 | 0.00 | 0.00 | 1012.7 | |
| 20260507185312 | 16 | 134 | 3.2 | 1.6 | 0.00 | 0.00 | 0.00 | 1012.5 | |
| 20260507184315 | 17 | 138 | 6.4 | 4.8 | 0.00 | 0.00 | 0.00 | 1012.3 | |
| 20260507183312 | 17 | 107 | 4.8 | 8.0 | 0.00 | 0.00 | 0.00 | 1012.2 | |
| 20260507182308 | 17 | 138 | 4.8 | 8.0 | 0.00 | 0.00 | 0.00 | 1012.1 | |
| 20260507181311 | 17 | 114 | 11.3 | 12.9 | 0.00 | 0.00 | 0.00 | 1011.9 | |
| 20260507180300 | 17 | 145 | 6.4 | 6.4 | 0.00 | 0.00 | 0.00 | 1011.8 | |
| 20260507175306 | 17 | 111 | 6.4 | 6.4 | 0.00 | 0.00 | 0.00 | 1011.7 | |
| 20260507174255 | 17 | 51 | 9.7 | 8.0 | 0.00 | 0.00 | 0.00 | 1011.6 | |
| 20260507173258 | 18 | 121 | 6.4 | 8.0 | 0.00 | 0.00 | 0.00 | 1011.5 | |
| 20260507172300 | 18 | 135 | 9.7 | 6.4 | 0.00 | 0.00 | 0.00 | 1011.5 | |
| 20260507171300 | 18 | 113 | 9.7 | 12.9 | 0.00 | 0.00 | 0.00 | 1011.5 | |
| 20260507170300 | 18 | 128 | 9.7 | 11.3 | 0.00 | 0.00 | 0.00 | 1011.4 | |
| 20260507165300 | 18 | 128 | 12.9 | 9.7 | 0.00 | 0.00 | 0.00 | 1011.4 | |
| 20260507164302 | 18 | 108 | 9.7 | 9.7 | 0.00 | 0.00 | 0.00 | 1011.4 | |
| 20260507163300 | 18 | 141 | 12.9 | 6.4 | 0.00 | 0.00 | 0.00 | 1011.3 | |
| 20260507162300 | 18 | 120 | 6.4 | 3.2 | 0.00 | 0.00 | 0.00 | 1011.2 | |
| 20260507161300 | 18 | 118 | 12.9 | 6.4 | 0.00 | 0.00 | 0.00 | 1011.1 | |
| 20260507160303 | 18 | 148 | 9.7 | 12.9 | 0.00 | 0.00 | 0.00 | 1011.2 | |
| 20260507155305 | 19 | 115 | 11.3 | 14.5 | 0.00 | 0.00 | 0.00 | 1011.3 | |
| 20260507154300 | 18 | 152 | 11.3 | 9.7 | 0.00 | 0.00 | 0.00 | 1011.3 | |
| 20260507153301 | 18 | 139 | 16.1 | 9.7 | 0.00 | 0.00 | 0.00 | 1011.3 | |
| 20260507152246 | 20 | 152 | 11.3 | 12.9 | 0.00 | 0.00 | 0.00 | 1011.3 | |
| 20260507151247 | 19 | 191 | 11.3 | 16.1 | 0.00 | 0.00 | 0.00 | 1011.3 | |
| 20260507150249 | 20 | 218 | 16.1 | 16.1 | 0.00 | 0.00 | 0.00 | 1011.3 | |
| 20260507145247 | 19 | 167 | 12.9 | 14.5 | 0.00 | 0.00 | 0.00 | 1011.2 | |
| 20260507144247 | 19 | 115 | 17.7 | 9.7 | 0.00 | 0.00 | 0.00 | 1011.5 | |
| 20260507143242 | 20 | 150 | 11.3 | 14.5 | 0.00 | 0.00 | 0.00 | 1011.6 | |
| 20260507142242 | 20 | 124 | 16.1 | 14.5 | 0.00 | 0.00 | 0.00 | 1011.7 | |
| 20260507141239 | 20 | 98 | 12.9 | 14.5 | 0.00 | 0.00 | 0.00 | 1011.8 | |
| 20260507140242 | 19 | 179 | 19.3 | 11.3 | 0.00 | 0.00 | 0.00 | 1011.8 | |
| 20260507135244 | 20 | 191 | 9.7 | 12.9 | 0.00 | 0.00 | 0.00 | 1012.1 | |
| 20260507134243 | 20 | 166 | 12.9 | 9.7 | 0.00 | 0.00 | 0.00 | 1012.0 | |
| 20260507133246 | 20 | 129 | 14.5 | 11.3 | 0.00 | 0.00 | 0.00 | 1012.2 | |
| 20260507132248 | 20 | 141 | 14.5 | 8.0 | 0.00 | 0.00 | 0.00 | 1012.2 | |
| 20260507131245 | 20 | 149 | 11.3 | 12.9 | 0.00 | 0.00 | 0.00 | 1012.2 | |
| 20260507130242 | 20 | 136 | 14.5 | 6.4 | 0.00 | 0.00 | 0.00 | 1012.3 | |
| 20260507125245 | 20 | 142 | 12.9 | 22.5 | 0.00 | 0.00 | 0.00 | 1012.5 | |
| 20260507124247 | 20 | 160 | 14.5 | 14.5 | 0.00 | 0.00 | 0.00 | 1012.6 | |
| 20260507123246 | 20 | 136 | 16.1 | 14.5 | 0.00 | 0.00 | 0.00 | 1012.5 | |
| 20260507122249 | 20 | 176 | 16.1 | 9.7 | 0.00 | 0.00 | 0.00 | 1012.6 | |
| 20260507121247 | 20 | 124 | 17.7 | 12.9 | 0.00 | 0.00 | 0.00 | 1012.6 | |
| 20260507120250 | 21 | 153 | 12.9 | 17.7 | 0.00 | 0.00 | 0.00 | 1012.7 | |
| 20260507115247 | 21 | 127 | 9.7 | 11.3 | 0.00 | 0.00 | 0.00 | 1012.7 | |
| 20260507114250 | 21 | 183 | 9.7 | 11.3 | 0.00 | 0.00 | 0.00 | 1012.8 | |
| 20260507113244 | 21 | 136 | 11.3 | 8.0 | 0.00 | 0.00 | 0.00 | 1012.8 | |
| 20260507112241 | 20 | 114 | 12.9 | 8.0 | 0.00 | 0.00 | 0.00 | 1013.1 | |
| 20260507111241 | 20 | 180 | 12.9 | 11.3 | 0.00 | 0.00 | 0.00 | 1013.2 | |
| 20260507110243 | 20 | 203 | 9.7 | 16.1 | 0.00 | 0.00 | 0.00 | 1013.4 | |
| 20260507105243 | 19 | 18 | 0.0 | 3.2 | 0.00 | 0.00 | 0.00 | 1013.4 | |
| 20260507104240 | 20 | 114 | 11.3 | 11.3 | 0.00 | 0.00 | 0.00 | 1013.5 | |
| 20260507103241 | 19 | 195 | 4.8 | 8.0 | 0.00 | 0.00 | 0.00 | 1013.7 | |
| 20260507102241 | 20 | 136 | 8.0 | 6.4 | 0.00 | 0.00 | 0.00 | 1013.5 | |
| 20260507101242 | 19 | 149 | 9.7 | 11.3 | 0.00 | 0.00 | 0.00 | 1013.9 | |
| 20260507100245 | 18 | 135 | 12.9 | 8.0 | 0.00 | 0.00 | 0.00 | 1014.0 | |
| 20260507095245 | 18 | 73 | 1.6 | 1.6 | 0.00 | 0.00 | 0.00 | 1013.9 | |
| 20260507094248 | 18 | 120 | 9.7 | 4.8 | 0.00 | 0.00 | 0.00 | 1014.0 | |
| 20260507093242 | 17 | 45 | 4.8 | 3.2 | 0.00 | 0.00 | 0.00 | 1014.2 | |
| 20260507092240 | 18 | 188 | 8.0 | 4.8 | 0.00 | 0.00 | 0.00 | 1014.1 | |
| 20260507091240 | 17 | 208 | 8.0 | 8.0 | 0.00 | 0.00 | 0.00 | 1014.2 | |
| 20260507090243 | 17 | 82 | 3.2 | 1.6 | 0.00 | 0.00 | 0.00 | 1013.9 | |
| 20260507085245 | 16 | 195 | 4.8 | 4.8 | 0.00 | 0.00 | 0.00 | 1013.9 | |
| 20260507084248 | 16 | 187 | 3.2 | 6.4 | 0.00 | 0.00 | 0.00 | 1014.1 | |
| 20260507083250 | 16 | 156 | 4.8 | 8.0 | 0.00 | 0.00 | 0.00 | 1014.0 | |
| 20260507082247 | 17 | 174 | 4.8 | 3.2 | 0.00 | 0.00 | 0.00 | 1014.1 | |
| 20260507081243 | 16 | 165 | 1.6 | 0.0 | 0.00 | 0.00 | 0.00 | 1014.2 | |
| 20260507080245 | 16 | 150 | 0.0 | 0.0 | 0.00 | 0.00 | 0.00 | 1014.2 | |
| 20260507075241 | 15 | 167 | 0.0 | 0.0 | 0.00 | 0.00 | 0.00 | 1014.3 | |
| 20260507074241 | 15 | 243 | 3.2 | 1.6 | 0.00 | 0.00 | 0.00 | 1014.5 | |
| 20260507073242 | 13 | 322 | 0.0 | 0.0 | 0.00 | 0.00 | 0.00 | 1014.5 | |
| 20260507072245 | 13 | 322 | 0.0 | 0.0 | 0.00 | 0.00 | 0.00 | 1014.5 | |
| 20260507071242 | 12 | 328 | 4.8 | 6.4 | 0.00 | 0.00 | 0.00 | 1014.6 | |
| 20260507070244 | 12 | 8 | 4.8 | 1.6 | 0.00 | 0.00 | 0.00 | 1014.5 | |
| 20260507065241 | 12 | 304 | 3.2 | 3.2 | 0.00 | 0.00 | 0.00 | 1014.4 | |
| 20260507064244 | 12 | 335 | 1.6 | 1.6 | 0.00 | 0.00 | 0.00 | 1014.3 | |
| 20260507063243 | 12 | 111 | 0.0 | 0.0 | 0.00 | 0.00 | 0.00 | 1014.2 | |
| 20260507062246 | 11 | 134 | 4.8 | 4.8 | 0.00 | 0.00 | 0.00 | 1014.0 | |
| 20260507061248 | 12 | 83 | 1.6 | 0.0 | 0.00 | 0.00 | 0.00 | 1013.9 | |
| 20260507060246 | 11 | 49 | 0.0 | 1.6 | 0.00 | 0.00 | 0.00 | 1013.9 | |
| 20260507055241 | 11 | 357 | 8.0 | 3.2 | 0.00 | 0.00 | 0.00 | 1013.8 | |
| 20260507054242 | 11 | 41 | 0.0 | 0.0 | 0.00 | 0.00 | 0.00 | 1013.6 | |
| 20260507053243 | 10 | 41 | 0.0 | 0.0 | 0.00 | 0.00 | 0.00 | 1013.6 | |
| 20260507052245 | 10 | 350 | 4.8 | 6.4 | 0.00 | 0.00 | 0.00 | 1013.5 | |
| 20260507051242 | 10 | 340 | 4.8 | 6.4 | 0.00 | 0.00 | 0.00 | 1013.6 | |
| 20260507050244 | 10 | 107 | 0.0 | 0.0 | 0.00 | 0.00 | 0.00 | 1013.5 | |
| 20260507045242 | 10 | 107 | 0.0 | 0.0 | 0.00 | 0.00 | 0.00 | 1013.5 | |
| 20260507044241 | 10 | 293 | 0.0 | 0.0 | 0.00 | 0.00 | 0.00 | 1013.5 | |
| 20260507043243 | 10 | 293 | 0.0 | 0.0 | 0.00 | 0.00 | 0.00 | 1013.5 | |
| 20260507042245 | 10 | 288 | 6.4 | 0.0 | 0.00 | 0.00 | 0.00 | 1013.4 | |
| 20260507041241 | 10 | 322 | 0.0 | 0.0 | 0.00 | 0.00 | 0.00 | 1013.4 | |
| 20260507040244 | 10 | 3 | 0.0 | 0.0 | 0.00 | 0.00 | 0.00 | 1013.5 | |
| 20260507035246 | 10 | 312 | 8.0 | 8.0 | 0.00 | 0.00 | 0.00 | 1013.5 | |
| 20260507034243 | 10 | 314 | 8.0 | 4.8 | 0.00 | 0.00 | 0.00 | 1013.4 | |
| 20260507033246 | 10 | 305 | 6.4 | 6.4 | 0.00 | 0.00 | 0.00 | 1013.5 | |
| 20260507032244 | 10 | 34 | 0.0 | 0.0 | 0.00 | 0.00 | 0.00 | 1013.6 | |
| 20260507031247 | 10 | 34 | 0.0 | 0.0 | 0.00 | 0.00 | 0.00 | 1013.6 | |
| 20260507030247 | 10 | 121 | 4.8 | 3.2 | 0.00 | 0.00 | 0.00 | 1013.6 | |
| 20260507025249 | 11 | 163 | 0.0 | 0.0 | 0.00 | 0.00 | 0.00 | 1013.5 | |
| 20260507024252 | 11 | 163 | 0.0 | 0.0 | 0.00 | 0.00 | 0.00 | 1013.4 | |
| 20260507023249 | 11 | 163 | 0.0 | 0.0 | 0.00 | 0.00 | 0.00 | 1013.4 | |
| 20260507022245 | 11 | 163 | 0.0 | 0.0 | 0.00 | 0.00 | 0.00 | 1013.3 | |
| 20260507021247 | 11 | 194 | 0.0 | 0.0 | 0.00 | 0.00 | 0.00 | 1013.3 | |
| 20260507020241 | 11 | 194 | 0.0 | 0.0 | 0.00 | 0.00 | 0.00 | 1013.3 | |
| 20260507015243 | 11 | 194 | 0.0 | 0.0 | 0.00 | 0.00 | 0.00 | 1013.3 | |
| 20260507014242 | 11 | 194 | 0.0 | 0.0 | 0.00 | 0.00 | 0.00 | 1013.5 | |
| 20260507013245 | 11 | 194 | 0.0 | 0.0 | 0.00 | 0.00 | 0.00 | 1013.5 | |
| 20260507012242 | 11 | 194 | 0.0 | 0.0 | 0.00 | 0.00 | 0.00 | 1013.4 | |
| 20260507011245 | 11 | 194 | 0.0 | 0.0 | 0.00 | 0.00 | 0.00 | 1013.4 | |
| 20260507010247 | 11 | 194 | 0.0 | 0.0 | 0.00 | 0.00 | 0.00 | 1013.4 | |
| 20260507005245 | 11 | 194 | 0.0 | 0.0 | 0.00 | 0.00 | 0.00 | 1013.5 | |
| 20260507004247 | 11 | 194 | 0.0 | 0.0 | 0.00 | 0.00 | 0.00 | 1013.6 | |
| 20260507003249 | 11 | 194 | 0.0 | 0.0 | 0.00 | 0.00 | 0.00 | 1013.7 | |
| 20260507002251 | 12 | 194 | 0.0 | 0.0 | 0.00 | 0.00 | 0.00 | 1013.6 | |
| 20260507001242 | 11 | 194 | 0.0 | 0.0 | 0.00 | 0.00 | 0.00 | 1013.8 | |
| 20260507000241 | 12 | 194 | 0.0 | 0.0 | 0.00 | 0.00 | 0.00 | 1013.8 | |
| 20260506235243 | 12 | 194 | 0.0 | 0.0 | 0.00 | 0.00 | 0.00 | 1013.6 | |
| 20260506234241 | 12 | 193 | 4.8 | 3.2 | 0.00 | 0.00 | 0.00 | 1013.7 | |
| 20260506233241 | 12 | 207 | 0.0 | 0.0 | 0.00 | 0.00 | 0.00 | 1013.7 | |
| 20260506232242 | 12 | 207 | 0.0 | 0.0 | 0.00 | 0.00 | 0.00 | 1013.7 | |
| 20260506231244 | 12 | 207 | 0.0 | 0.0 | 0.00 | 0.00 | 0.00 | 1013.7 | |
| 20260506230241 | 13 | 217 | 0.0 | 0.0 | 0.00 | 0.00 | 0.00 | 1013.7 | |
| 20260506225241 | 13 | 217 | 0.0 | 0.0 | 0.00 | 0.00 | 0.00 | 1013.6 | |
| 20260506224244 | 13 | 217 | 0.0 | 0.0 | 0.00 | 0.00 | 0.00 | 1013.5 | |
| 20260506223246 | 13 | 217 | 0.0 | 0.0 | 0.00 | 0.00 | 0.00 | 1013.5 | |
| 20260506222244 | 13 | 217 | 0.0 | 0.0 | 0.00 | 0.00 | 0.00 | 1013.5 | |
| 20260506221246 | 13 | 217 | 0.0 | 0.0 | 0.00 | 0.00 | 0.00 | 1013.5 | |
| 20260506220244 | 14 | 217 | 0.0 | 0.0 | 0.00 | 0.00 | 0.00 | 1013.4 | |
| 20260506215240 | 14 | 217 | 0.0 | 0.0 | 0.00 | 0.43 | 0.00 | 1013.4 | |
| 20260506214243 | 14 | 217 | 0.0 | 0.0 | 0.00 | 0.43 | 0.00 | 1013.4 |